IU5JAE-13 Weather Reports


time (UTC)temp
C
wind
direction
speed
KPH
gust
KPH
rain 1hr
cm
rain 24hr
cm
rain mn
cm
humidity
%
barometer
mb
20260505061523 11 126 0.0 3.2 0.33 3.43 3.43 98 1012.8
20260505060520 11 76 3.2 8.0 0.53 3.43 3.43 98 1012.6
20260505055518 11 76 1.6 4.8 0.94 3.38 3.38 98 1012.6
20260505054517 11 43 1.6 6.4 1.24 3.33 3.33 98 1012.6
20260505053533 11 155 1.6 4.8 1.68 3.25 3.25 97 1012.6
20260505052531 11 58 0.0 3.2 1.96 3.23 3.23 97 1012.7
20260505051528 11 80 3.2 4.8 1.96 3.10 3.10 97 1013.0
20260505050526 11 78 1.6 4.8 1.78 2.90 2.90 97 1013.3
20260505041534 11 87 0.0 3.2 0.13 1.17 1.17 96 1012.8
20260505040531 11 80 0.0 3.2 0.10 1.12 1.12 96 1012.8
20260505035529 11 91 0.0 3.2 0.13 1.09 1.09 96 1012.9
20260505034526 11 105 0.0 3.2 0.18 1.09 1.09 96 1013.0
20260505033524 11 276 0.0 3.2 0.20 1.04 1.04 96 1013.1
20260505032521 11 244 1.6 4.8 0.38 1.04 1.04 95 1013.3
20260505031519 11 135 0.0 1.6 0.48 1.04 1.04 95 1013.4
20260505030517 11 106 0.0 3.2 0.53 1.02 1.02 95 1013.5
20260505025534 11 151 0.0 3.2 0.56 0.97 0.97 95 1013.8
20260505024532 11 154 0.0 3.2 0.56 0.91 0.91 94 1013.9
20260505023529 11 291 1.6 6.4 0.56 0.84 0.84 94 1013.9
20260505022527 11 18 0.0 3.2 0.41 0.66 0.66 94 1014.2
20260505021525 11 342 1.6 3.2 0.33 0.56 0.56 93 1014.2
20260505020522 11 233 0.0 3.2 0.30 0.48 0.48 93 1014.3
20260505015520 11 243 1.6 3.2 0.30 0.43 0.43 93 1014.4
20260505014517 11 253 1.6 3.2 0.30 0.36 0.36 92 1014.4
20260505013515 11 100 0.0 1.6 0.28 0.30 0.30 91 1014.6
20260505012533 11 282 0.0 3.2 0.25 0.25 0.25 91 1014.8
20260505011530 11 237 0.0 3.2 0.23 0.23 0.23 89 1014.8
20260505010528 12 251 1.6 4.8 0.18 0.18 0.18 87 1014.9
20260505005525 12 318 0.0 1.6 0.10 0.10 0.10 83 1015.1
20260505004523 13 264 1.6 3.2 0.05 0.05 0.05 78 1015.1
20260505003521 13 0.0 1.6 0.00 0.00 0.00 74 1015.3
20260505002518 13 63 1.6 3.2 0.00 0.00 0.00 74 1015.4
20260505001516 13 243 0.0 1.6 0.00 0.00 0.00 74 1015.7
20260505000533 13 108 0.0 1.6 0.00 0.00 0.00 75 1015.7
20260504235531 13 278 0.0 3.2 0.00 0.00 0.00 74 1015.8
20260504234529 13 34 0.0 3.2 0.00 0.00 0.00 74 1015.9
20260504233526 13 0.0 0.0 0.00 0.00 0.00 74 1016.1
20260504232524 13 302 0.0 3.2 0.00 0.00 0.00 73 1016.3
20260504231521 13 0.0 1.6 0.00 0.00 0.00 73 1016.3
20260504230519 13 0.0 1.6 0.00 0.00 0.00 73 1016.6
20260504225516 13 0.0 1.6 0.00 0.00 0.00 73 1016.7
20260504224534 13 274 0.0 3.2 0.00 0.00 0.00 73 1016.8
20260504223532 13 0.0 1.6 0.00 0.00 0.00 72 1017.0
20260504222529 13 58 0.0 1.6 0.00 0.00 0.00 72 1017.2
20260504221527 13 259 0.0 3.2 0.00 0.00 0.00 74 1017.2
20260504220525 13 302 0.0 3.2 0.00 0.00 0.00 74 1017.2
20260504215522 12 186 0.0 3.2 0.00 0.00 0.00 75 1017.4
20260504214520 13 259 0.0 3.2 0.00 0.00 0.00 75 1017.5
20260504213517 13 314 0.0 3.2 0.00 0.00 0.00 76 1017.4
20260504212535 13 263 0.0 3.2 0.00 0.00 0.00 77 1017.6
20260504211532 13 254 0.0 1.6 0.00 0.00 0.00 76 1017.4
20260504210530 12 321 0.0 1.6 0.00 0.00 0.00 76 1017.6
20260504205528 13 79 0.0 1.6 0.00 0.00 0.00 76 1017.6
20260504204525 13 315 0.0 1.6 0.00 0.00 0.00 77 1017.5
20260504203523 13 317 0.0 3.2 0.00 0.00 0.00 76 1017.8
20260504202520 13 79 0.0 3.2 0.00 0.00 0.00 75 1017.6
20260504201518 13 74 1.6 3.2 0.00 0.00 0.00 72 1017.7
20260504200516 14 233 0.0 3.2 0.00 0.00 0.00 69 1017.7
20260504195533 13 254 1.6 6.4 0.00 0.00 0.00 70 1017.7
20260504194531 13 237 1.6 6.4 0.00 0.00 0.00 72 1017.7
20260504193529 13 253 1.6 8.0 0.00 0.00 0.00 79 1017.5
20260504192526 14 245 1.6 3.2 0.00 0.00 0.00 78 1017.5
20260504191523 13 198 1.6 8.0 0.00 0.00 0.00 79 1017.5
20260504190521 13 244 3.2 8.0 0.00 0.00 0.00 81 1017.3
20260504185519 13 257 3.2 9.7 0.00 0.00 0.00 83 1017.2
20260504184516 13 250 3.2 9.7 0.00 0.00 0.00 84 1017.2
20260504183534 14 238 4.8 9.7 0.00 0.00 0.00 84 1017.2
20260504182532 14 236 4.8 12.9 0.00 0.00 0.00 84 1017.2
20260504181529 14 204 6.4 12.9 0.00 0.00 0.00 83 1017.2
20260504180527 15 211 3.2 6.4 0.00 0.00 0.00 83 1017.1
20260504175524 15 182 4.8 9.7 0.00 0.00 0.00 83 1017.2
20260504174522 15 181 4.8 9.7 0.00 0.00 0.00 81 1017.1
20260504173520 15 217 1.6 6.4 0.00 0.00 0.00 79 1017.2
20260504172517 15 205 3.2 9.7 0.00 0.00 0.00 79 1017.1
20260504171535 15 199 4.8 12.9 0.00 0.00 0.00 77 1017.2
20260504170532 16 194 3.2 11.3 0.00 0.00 0.00 76 1017.1
20260504150524 18 193 3.2 8.0 0.00 0.00 0.00 58 1017.5
20260504140529 18 157 3.2 8.0 0.00 0.00 0.00 51 1017.6
20260504130535 19 196 4.8 11.3 0.00 0.00 0.00 45 1018.2
20260504110526 17 210 9.7 22.5 0.00 0.00 0.00 46 1018.7
20260504100532 19 247 4.8 11.3 0.00 0.00 0.00 38 1019.1
20260504081525 17 131 1.6 3.2 0.00 0.00 0.00 55 1018.8
20260504080523 16 98 1.6 4.8 0.00 0.00 0.00 56 1018.8